x

Frying Pan Shoals, Nc Buoy (41013) Wave Buoy

7:50am - Mon 27th Mar 2017 All times are EDT. -4 hours from GMT.

  • Sig Wave height 3.3ft
  • Swell Direction
  • Peak Period 9s
  • Average Period 5s
  • Wind
    4mph, 7mph gusts
  • Sea Temp 76°f
  • 空気 Temp 71°f
  • Sea Pressure 1020.8mb
  • Frying Pan Shoals, Nc Buoy
  • Frying Pan Shoals, Nc Buoy

More Historic Weather Station data

Upgrade to MSW Pro to gain access to the past 30 days of data for over 8000 Wavebouys and Weather Stations around the globe.

Join Pro

Comparision Forecast

View Surf forecast
   
Mon 03/27 7:50am 3.5ft 9s 5s 4 7 mph 1020.8mb 76f 71f
7:40am 3.5ft  -  5s 7 11 mph 1020.5mb 76f 71f
7:30am  -   -   -  7 9 mph 1020.5mb 76f 71f
7:20am  -   -   -  7 9 mph 1020.5mb 76f 71f
7:10am  -   -   -  4 9 mph 1020.5mb 76f 71f
7:00am  -   -   -  7 11 mph 1020.4mb 76f 71f
6:50am 3.5ft 10s 6s 7 11 mph 1020.3mb 76f 71f
6:40am  -   -   -  9 11 mph 1020.1mb 76f 71f
6:30am  -   -   -  7 11 mph 1020mb 76f 71f
6:20am  -   -   -  9 11 mph 1020mb 76f 71f
6:10am  -   -   -  9 13 mph 1019.9mb 76f 71f
6:00am  -   -   -  9 13 mph 1019.8mb 76f 71f
5:50am 4ft 9s 5s 11 16 mph 1019.6mb 76f 71f
5:40am 4ft  -  5s 11 16 mph 1019.6mb 76f 71f
5:30am  -   -   -  11 13 mph 1019.5mb 76f 71f
5:20am  -   -   -  11 16 mph 1019.5mb 76f 71f
5:10am  -   -   -  13 16 mph 1019.5mb 76f 71f
5:00am  -   -   -  13 18 mph 1019.5mb 76f 71f
4:50am 4ft 10s 5s 11 16 mph 1019.5mb 76f 71f
4:40am 4ft  -  5s 13 18 mph 1019.6mb 76f 71f
4:30am  -   -   -  11 13 mph 1019.9mb 76f 71f
4:20am  -   -   -  11 16 mph 1019.9mb 76f 71f
4:10am  -   -   -  11 16 mph 1019.9mb 76f 71f
4:00am  -   -   -  11 13 mph 1019.9mb 76f 71f
3:50am 4ft 9s 5s 11 16 mph 1020mb 76f 71f
3:40am  -   -   -  13 18 mph 1020mb 76f 71f
3:30am  -   -   -  11 16 mph 1020mb 76f 71f
3:20am  -   -   -  11 18 mph 1020.1mb 76f 71f
3:10am  -   -   -  11 16 mph 1020.3mb 76f 71f
3:00am  -   -   -  11 18 mph 1020.4mb 76f 71f
2:50am 4ft 9s 5s 13 16 mph 1020.5mb 76f 71f
2:40am 4ft  -  5s 11 16 mph 1020.6mb 76f 71f
2:30am  -   -   -  11 16 mph 1020.8mb 76f 71f
2:20am  -   -   -  11 16 mph 1020.9mb 76f 71f
2:10am  -   -   -  13 18 mph 1021mb 76f 71f
2:00am  -   -   -  11 16 mph 1021mb 76f 71f
1:50am 4ft 9s 5s 13 16 mph 1021.1mb 76f 71f
1:40am  -   -   -  13 18 mph 1021.1mb 76f 71f
1:30am  -   -   -  11 18 mph 1021.4mb 76f 71f
1:20am  -   -   -  13 18 mph 1021.5mb 76f 71f
1:10am  -   -   -  16 18 mph 1021.5mb 76f 71f
1:00am  -   -   -  13 18 mph 1021.6mb 76f 71f
12:50am 4ft 9s 5s 13 18 mph 1021.8mb 76f 71f
12:40am 4ft  -  5s 13 18 mph 1021.8mb 76f 71f
12:30am  -   -   -  13 18 mph 1021.9mb 76f 71f
12:20am  -   -   -  13 18 mph 1022mb 76f 71f
12:10am  -   -   -  13 20 mph 1022mb 76f 71f
12:00am  -   -   -  13 18 mph 1022mb 76f 71f
Sun 03/26 11:50pm 3.5ft 9s 5s 13 18 mph 1022.1mb 76f 71f
11:40pm 3.5ft  -  5s 13 18 mph 1022.1mb 76f 71f
11:30pm  -   -   -  16 18 mph 1022.4mb 76f 71f
11:20pm  -   -   -  16 20 mph 1022.4mb 76f 71f
11:10pm  -   -   -  16 18 mph 1022.5mb 76f 71f
11:00pm  -   -   -  16 20 mph 1022.5mb 76f 71f
10:50pm 3.5ft 10s 5s 13 20 mph 1022.6mb 76f 71f
10:40pm  -   -   -  13 18 mph 1022.6mb 76f 71f
10:30pm  -   -   -  13 18 mph 1022.6mb 76f 71f
10:20pm  -   -   -  16 20 mph 1022.6mb 76f 71f
10:10pm  -   -   -  13 18 mph 1022.5mb 76f 71f
10:00pm  -   -   -  13 18 mph 1022.5mb 76f 71f
9:50pm 3.5ft 10s 5s 13 20 mph 1022.5mb 76f 71f
9:40pm  -   -   -  13 18 mph 1022.5mb 76f 71f
9:30pm  -   -   -  13 18 mph 1022.5mb 76f 71f
9:20pm  -   -   -  16 18 mph 1022.4mb 76f 71f
9:10pm  -   -   -  16 18 mph 1022.3mb 76f 71f
9:00pm  -   -   -  16 20 mph 1022.3mb 76f 71f
8:50pm 3.5ft 8s 5s 13 20 mph 1022mb 76f 71f
8:40pm  -   -   -  13 18 mph 1022mb 76f 71f
8:30pm  -   -   -  16 20 mph 1022mb 76f 71f
8:20pm  -   -   -  13 20 mph 1021.8mb 76f 71f
8:10pm  -   -   -  13 20 mph 1021.9mb 76f 71f
8:00pm  -   -   -  13 18 mph 1021.9mb 76f 71f
7:50pm 3.5ft 9s 5s 13 18 mph 1022mb 76f 71f
7:40pm  -   -   -  13 18 mph 1022mb 76f 71f
7:30pm  -   -   -  13 16 mph 1022mb 76f 71f
7:20pm  -   -   -  13 16 mph 1022mb 76f 71f
7:10pm  -   -   -  11 16 mph 1022mb 76f 71f
7:00pm  -   -   -  11 16 mph 1022mb 76f 71f
6:50pm 3.5ft 7s 5s 11 16 mph 1022mb 76f 71f
6:40pm 3.5ft  -  5s 11 16 mph 1022.1mb 76f 71f
6:30pm  -   -   -  11 16 mph 1022.1mb 76f 71f
6:20pm  -   -   -  11 16 mph 1022mb 76f 71f
6:10pm  -   -   -  11 16 mph 1022mb 76f 71f
6:00pm  -   -   -  11 13 mph 1022mb 76f 71f
5:50pm 3.5ft 7s 5s 11 13 mph 1022mb 76f 71f
5:40pm 3.5ft  -  5s 11 13 mph 1022mb 76f 71f
5:30pm  -   -   -  11 13 mph 1022mb 76f 71f
5:20pm  -   -   -  11 16 mph 1022mb 76f 71f
5:10pm  -   -   -  11 16 mph 1022.1mb 76f 71f
5:00pm  -   -   -  11 16 mph 1022.1mb 76f 71f
4:50pm 3.5ft 8s 5s 13 16 mph 1022mb 76f 72f
4:40pm 3.5ft  -  5s 13 18 mph 1022mb 76f 72f
4:30pm  -   -   -  13 18 mph 1022.1mb 76f 72f
4:20pm  -   -   -  13 18 mph 1022.1mb 76f 72f
4:10pm  -   -   -  13 18 mph 1022.1mb 76f 72f
4:00pm  -   -   -  13 18 mph 1022.3mb 76f 72f
3:50pm 4ft 8s 5s 13 16 mph 1022.3mb 75f 72f
3:40pm 4ft  -  5s 13 18 mph 1022.4mb 75f 72f
3:30pm  -   -   -  13 18 mph 1022.5mb 75f 72f
3:20pm  -   -   -  16 20 mph 1022.5mb 75f 72f
3:10pm  -   -   -  13 18 mph 1022.5mb 75f 72f
3:00pm  -   -   -  13 18 mph 1022.6mb 75f 71f
2:50pm 4ft 9s 4s 13 20 mph 1022.8mb 75f 71f
2:40pm 4ft  -  4s 13 20 mph 1022.8mb 75f 71f
2:30pm  -   -   -  16 18 mph 1022.8mb 75f 71f
2:20pm  -   -   -  16 20 mph 1023mb 75f 71f
2:10pm  -   -   -  16 22 mph 1023mb 75f 71f
2:00pm  -   -   -  16 20 mph 1023.3mb 75f 71f
1:50pm 4ft 9s 5s 16 18 mph 1023.4mb 75f 71f
1:40pm 4ft  -  5s 16 20 mph 1023.5mb 74f 71f
1:30pm  -   -   -  16 18 mph 1023.5mb 74f 71f
1:20pm  -   -   -  13 18 mph 1023.5mb 74f 71f
1:10pm  -   -   -  13 18 mph 1023.8mb 74f 71f
1:00pm  -   -   -  13 18 mph 1023.9mb 74f 71f
12:50pm 3.5ft 6s 5s 13 20 mph 1024mb 74f 71f
12:40pm 3.5ft  -  5s 13 18 mph 1024mb 74f 71f
12:30pm  -   -   -  13 20 mph 1024.2mb 74f 71f
12:20pm  -   -   -  16 18 mph 1024.2mb 74f 71f
12:10pm  -   -   -  13 18 mph 1024.2mb 74f 71f
12:00pm  -   -   -  16 18 mph 1024.2mb 74f 71f
11:50am 3.5ft 8s 5s 16 20 mph 1024mb 74f 71f
11:40am 3.5ft  -  5s 16 20 mph 1024.2mb 74f 71f
11:30am  -   -   -  16 20 mph 1024.3mb 74f 72f
11:20am  -   -   -  16 22 mph 1024.3mb 74f 71f
11:10am  -   -   -  16 20 mph 1024.3mb 74f 71f
11:00am  -   -   -  16 20 mph 1024.3mb 74f 71f
10:50am 3.5ft 8s 5s 16 20 mph 1024.3mb 74f 71f
10:40am 3.5ft  -  5s 16 22 mph 1024.3mb 74f 71f
10:30am  -   -   -  16 20 mph 1024.3mb 74f 71f
10:20am  -   -   -  16 20 mph 1024.3mb 74f 71f
10:10am  -   -   -  16 18 mph 1024.2mb 74f 71f
10:00am  -   -   -  16 18 mph 1024mb 74f 71f
9:50am 3.5ft 8s 5s 16 20 mph 1024mb - -
9:40am 3.5ft  -  5s 16 20 mph 1023.9mb 74f 71f
9:30am  -   -   -  13 18 mph 1023.9mb 74f 72f
9:20am  -   -   -  11 16 mph 1023.9mb 74f 71f
9:10am  -   -   -  13 18 mph 1024mb 74f 71f
9:00am  -   -   -  13 20 mph 1023.8mb - -
8:50am 3.5ft 8s 5s 13 18 mph 1023.6mb 75f 70f
8:40am 3.5ft  -  5s 13 16 mph 1023.6mb 75f 70f
8:30am  -   -   -  13 16 mph 1023.6mb 75f 70f
8:20am  -   -   -  13 16 mph 1023.6mb 75f 69f
8:10am  -   -   -  13 16 mph 1023.6mb 75f 69f
8:00am  -   -   -  13 18 mph 1023.5mb 75f 70f
7:50am 4ft 9s 5s 13 16 mph 1023.4mb 75f 70f
7:40am 4ft  -  5s 16 18 mph 1023.4mb 75f 69f
7:30am  -   -   -  16 20 mph 1023.4mb 75f 69f
7:20am  -   -   -  16 20 mph 1023.3mb 75f 70f
7:10am  -   -   -  13 18 mph 1023.1mb 75f 70f
7:00am  -   -   -  11 16 mph 1023.3mb 75f 70f
6:50am 3.5ft 8s 5s 11 13 mph 1023.3mb 75f 70f
6:40am 3.5ft  -  5s 13 18 mph 1023mb 75f 70f
6:30am  -   -   -  11 16 mph 1023mb 75f 70f
6:20am  -   -   -  11 16 mph 1023mb 75f 70f
6:10am  -   -   -  13 16 mph 1022.9mb 75f 70f
6:00am  -   -   -  13 16 mph 1022.8mb 75f 71f
5:50am 4ft 8s 5s 11 16 mph 1022.6mb 75f 71f
5:40am 4ft  -  5s 11 16 mph 1022.5mb 75f 71f
5:30am  -   -   -  9 13 mph 1022.5mb 75f 70f
5:20am  -   -   -  11 16 mph 1022.5mb 75f 71f
5:10am  -   -   -  13 18 mph 1022.5mb 75f 71f
5:00am  -   -   -  16 20 mph 1022.5mb 75f 71f
4:50am 4ft 8s 5s 13 20 mph 1022.4mb 75f 70f
4:40am 4ft  -  5s 16 20 mph 1022.5mb 74f 70f
4:30am  -   -   -  16 20 mph 1022.5mb 74f 70f
4:20am  -   -   -  18 22 mph 1022.5mb 74f 70f
4:10am  -   -   -  18 22 mph 1022.5mb 74f 70f
4:00am  -   -   -  20 25 mph 1022.5mb 74f 71f
3:50am 4.5ft 8s 4s 18 25 mph 1022.4mb 74f 71f
3:40am 4.5ft  -  4s 18 22 mph 1022.5mb 74f 71f
3:30am  -   -   -  20 25 mph 1022.5mb 74f 71f
3:20am  -   -   -  20 25 mph 1022.5mb 74f 70f
3:10am  -   -   -  18 25 mph 1022.8mb 74f 70f
3:00am  -   -   -  18 22 mph 1023mb 74f 70f
2:50am 3.5ft 7s 4s 18 22 mph 1023mb 74f 71f
2:40am 3.5ft  -  4s 18 22 mph 1023mb 74f 71f
2:30am  -   -   -  16 22 mph 1023.3mb 74f 70f
2:20am  -   -   -  16 20 mph 1023.4mb 73f 70f
2:10am  -   -   -  16 20 mph 1023.5mb 73f 70f
2:00am  -   -   -  16 25 mph 1023.6mb 73f 70f
1:50am 3.5ft 6s 4s 18 22 mph 1023.9mb 73f 70f
1:40am 3.5ft  -  4s 16 22 mph 1024mb 73f 70f
1:30am  -   -   -  18 22 mph 1024mb 73f 71f
1:20am  -   -   -  16 22 mph 1024mb 73f 71f
1:10am  -   -   -  18 25 mph 1024.2mb 73f 70f
1:00am  -   -   -  16 18 mph 1024.3mb 73f 71f
12:50am 4ft 7s 5s 16 22 mph 1024.3mb 73f 71f
12:40am  -   -   -  18 22 mph 1024.3mb 73f 71f
12:30am  -   -   -  18 25 mph 1024.3mb 73f 71f
12:20am  -   -   -  18 27 mph 1024.3mb 73f 70f
12:10am  -   -   -  18 22 mph 1024.5mb 73f 71f
12:00am  -   -   -  18 25 mph 1024.5mb 73f 70f
Sat 03/25 11:50pm 3.5ft 8s 5s 18 22 mph 1024.7mb 73f 70f
11:40pm 3.5ft  -  5s 18 25 mph 1024.5mb 73f 70f
11:30pm  -   -   -  16 20 mph 1024.7mb 73f 70f
11:20pm  -   -   -  16 20 mph 1024.8mb 73f 71f
11:10pm  -   -   -  16 20 mph 1024.8mb 73f 71f
11:00pm  -   -   -  16 20 mph 1024.8mb 74f 70f
10:50pm 3.5ft 7s 5s 16 20 mph 1024.8mb 74f 70f
10:40pm  -   -   -  16 20 mph 1024.8mb 74f 70f
10:30pm  -   -   -  16 20 mph 1024.8mb 74f 70f
10:20pm  -   -   -  13 18 mph 1025mb 74f 70f
10:10pm  -   -   -  16 18 mph 1025mb 74f 70f
10:00pm  -   -   -  13 18 mph 1024.8mb 74f 70f
9:50pm 3.5ft 8s 5s 13 18 mph 1025mb 74f 70f
9:40pm  -   -   -  13 18 mph 1024.8mb 74f 70f
9:30pm  -   -   -  13 16 mph 1024.8mb 74f 70f
9:20pm  -   -   -  13 18 mph 1024.8mb 74f 70f
9:10pm  -   -   -  11 16 mph 1025mb 74f 70f
9:00pm  -   -   -  11 16 mph 1024.8mb 74f 70f
8:50pm 3.5ft  -  5s 11 16 mph - 74f 70f
8:40pm 3.5ft  -  5s 13 16 mph 1024.8mb 74f 70f
8:30pm  -   -   -  13 18 mph 1024.7mb 74f 70f
8:20pm  -   -   -  11 16 mph 1024.7mb 74f 70f
8:10pm  -   -   -  9 13 mph 1024.5mb 74f 69f
8:00pm  -   -   -  13 18 mph 1024.5mb 74f 69f
7:50pm 3.5ft 8s 5s 11 16 mph 1024.5mb 74f 70f
7:40pm 3.5ft  -  5s 11 16 mph 1024.5mb 74f 69f
7:30pm  -   -   -  13 16 mph 1024.5mb 74f 69f
7:20pm  -   -   -  11 16 mph 1024.5mb 74f 70f
7:10pm  -   -   -  11 16 mph 1024.5mb 74f 70f
7:00pm  -   -   -  11 18 mph 1024.5mb 74f 70f
6:50pm 3.5ft 8s 5s 11 16 mph 1024.5mb 74f 70f
6:40pm  -   -   -  11 16 mph 1024.5mb 74f 69f
6:30pm  -   -   -  13 16 mph 1024.5mb 74f 70f
6:20pm  -   -   -  11 16 mph 1024.5mb 74f 70f
6:10pm  -   -   -  11 16 mph 1024.5mb 74f 70f
6:00pm  -   -   -  13 16 mph 1024.5mb 74f 70f
5:50pm 3.5ft 8s 4s 13 16 mph 1024.5mb 74f 70f
5:40pm  -   -   -  16 18 mph 1024.5mb 74f 70f
5:30pm  -   -   -  13 18 mph 1024.7mb 74f 70f
5:20pm  -   -   -  16 18 mph 1024.7mb 74f 70f
5:10pm  -   -   -  16 18 mph 1024.7mb 74f 70f
5:00pm  -   -   -  16 20 mph 1024.8mb 74f 70f
4:50pm 3.5ft 8s 4s 16 18 mph 1024.8mb 73f 70f
4:40pm  -   -   -  16 20 mph 1025mb 73f 70f
4:30pm  -   -   -  16 20 mph 1025mb 73f 70f
4:20pm  -   -   -  16 20 mph 1025mb 73f 70f
4:10pm  -   -   -  16 20 mph 1025.2mb 73f 70f
4:00pm  -   -   -  13 16 mph 1025.3mb 73f 70f
3:50pm 3.5ft 8s 5s 16 18 mph 1025.3mb 73f 70f
3:40pm  -   -   -  16 20 mph 1025.5mb 73f 70f
3:30pm  -   -   -  16 18 mph 1025.5mb 73f 70f
3:20pm  -   -   -  16 22 mph 1025.7mb 73f 70f
3:10pm  -   -   -  16 20 mph 1025.8mb 73f 70f
3:00pm  -   -   -  16 20 mph 1026mb - 70f
2:50pm 3.5ft 7s 5s 13 18 mph 1026.2mb 73f 70f
2:40pm  -   -   -  13 18 mph 1026.3mb 73f 70f
2:30pm  -   -   -  11 16 mph 1026.5mb 73f 70f
2:20pm  -   -   -  11 16 mph 1026.8mb 73f 70f
2:10pm  -   -   -  13 16 mph 1027mb 73f 69f
2:00pm  -   -   -  11 16 mph 1027.2mb 73f 69f
1:50pm 3.5ft 7s 5s 13 16 mph 1027.2mb 73f 69f
1:40pm 3.5ft  -  5s 13 18 mph 1027.3mb 72f 69f
1:30pm  -   -   -  11 16 mph 1027.5mb 72f 69f
1:20pm  -   -   -  11 18 mph 1027.5mb 72f 69f
1:10pm  -   -   -  13 16 mph 1027.5mb 72f 69f
1:00pm  -   -   -  11 16 mph 1027.8mb 72f 69f
12:50pm 4ft 9s 5s 13 18 mph 1027.8mb 72f 69f
12:40pm 4ft  -  5s 11 16 mph 1028mb 72f 70f
12:30pm  -   -   -  11 16 mph 1028mb 72f 70f
12:20pm  -   -   -  11 13 mph 1028mb 72f 70f
12:10pm  -   -   -  11 16 mph 1028.2mb 72f 70f
12:00pm  -   -   -  11 16 mph 1028.2mb 72f 70f
11:50am 3.5ft 8s 5s 11 18 mph 1028.3mb 72f 70f
11:40am 3.5ft  -  5s 9 13 mph 1028.3mb 72f 70f
11:30am  -   -   -  11 16 mph 1028.3mb 72f 70f
11:20am  -   -   -  11 16 mph 1028.3mb 72f 70f
11:10am  -   -   -  11 16 mph 1028.5mb 72f 70f
11:00am  -   -   -  11 13 mph 1028.5mb 72f 69f
10:50am 3.5ft 7s 5s 11 18 mph 1028.5mb 72f 69f
10:40am  -   -   -  11 18 mph 1028.7mb 72f 69f
10:30am  -   -   -  11 16 mph 1028.7mb 73f 69f
10:20am  -   -   -  7 11 mph 1028.5mb 73f 69f
10:10am  -   -   -  9 11 mph 1028.5mb 73f 69f
10:00am  -   -   -  7 11 mph 1028.5mb 73f 69f
9:50am 3.5ft 8s 5s 7 11 mph 1028.3mb 73f 69f
9:40am  -   -   -  9 13 mph 1028.3mb 73f 69f
9:30am  -   -   -  9 13 mph 1028.2mb 73f 69f
9:20am  -   -   -  9 13 mph 1028.2mb 73f 69f
9:10am  -   -   -  11 16 mph 1028mb 73f 69f
9:00am  -   -   -  9 13 mph 1028mb - -
8:50am 3.5ft 8s 5s 9 11 mph 1028mb 73f 69f
8:40am 3.5ft  -  5s 9 13 mph 1027.8mb 73f 69f
8:30am  -   -   -  11 18 mph 1027.7mb 74f 69f
8:20am  -   -   -  11 16 mph 1027.5mb 74f 69f
8:10am  -   -   -  11 13 mph 1027.5mb 74f 69f
8:00am  -   -   -  11 16 mph 1027.3mb 74f 69f
7:50am 3.5ft 9s 5s 9 16 mph 1027.2mb 74f 69f
7:40am 3.5ft  -  5s 7 11 mph 1027mb 74f 69f
7:30am  -   -   -  9 13 mph 1027mb 74f 69f
7:20am  -   -   -  11 16 mph 1026.8mb 74f 69f
7:10am  -   -   -  9 13 mph 1026.7mb 74f 69f
7:00am  -   -   -  11 16 mph 1026.5mb 74f 69f
6:50am 3.5ft 7s 5s 11 16 mph 1026.5mb 74f 69f
6:40am 3.5ft  -  5s 13 18 mph 1026.3mb 74f 69f
6:30am  -   -   -  16 20 mph 1026.3mb 74f 69f
6:20am  -   -   -  13 20 mph 1026.5mb 74f 69f
6:10am  -   -   -  13 18 mph 1026.5mb 74f 69f
6:00am  -   -   -  7 13 mph 1026.5mb 74f 69f
5:50am 3.5ft 7s 5s 7 9 mph 1026.7mb 74f 68f
5:40am 3.5ft  -  5s 7 9 mph 1026.8mb 74f 68f
5:30am  -   -   -  7 11 mph 1026.7mb 74f 68f
5:20am  -   -   -  11 16 mph 1026.7mb 74f 68f
5:10am  -   -   -  11 16 mph 1026.8mb 74f 68f
5:00am  -   -   -  11 16 mph 1027mb 74f 69f
4:50am 3.5ft 8s 5s 11 16 mph 1027mb 74f 68f
4:40am 3.5ft  -  5s 13 18 mph 1027.2mb 74f 69f
4:30am  -   -   -  13 16 mph 1027.3mb 73f 69f
4:20am  -   -   -  13 18 mph 1027.3mb 73f 69f
4:10am  -   -   -  13 18 mph 1027.3mb 73f 69f
4:00am  -   -   -  13 18 mph 1027.3mb 73f 69f
3:50am 3.5ft 7s 5s 13 20 mph 1027.5mb 73f 69f
3:40am 3.5ft  -  5s 13 18 mph 1027.5mb 73f 69f
3:30am  -   -   -  11 18 mph 1027.8mb 73f 69f
3:20am  -   -   -  16 25 mph 1028mb 73f 69f
3:10am  -   -   -  13 20 mph 1028mb 73f 69f
3:00am  -   -   -  13 18 mph 1028mb - 69f
2:50am 3.5ft 8s 5s 13 16 mph 1028.3mb 73f 69f
2:40am  -   -   -  13 18 mph 1028.3mb 73f 69f
2:30am  -   -   -  13 20 mph 1028.2mb 73f 69f
2:20am  -   -   -  16 20 mph 1028.3mb 73f 69f
2:10am  -   -   -  13 16 mph 1028.3mb 73f 69f
2:00am  -   -   -  13 20 mph 1028.3mb 73f 69f
1:50am 3.5ft 8s 5s 13 18 mph 1028.5mb 73f 69f
1:40am 3.5ft  -  5s 11 16 mph 1028.5mb 73f 69f
1:30am  -   -   -  11 16 mph 1028.8mb 73f 69f
1:20am  -   -   -  13 18 mph 1028.8mb 73f 69f
1:10am  -   -   -  11 16 mph 1028.8mb 73f 69f
1:00am  -   -   -  13 16 mph 1029mb 73f 69f
12:50am 3.5ft 8s 5s 11 16 mph 1029.2mb 73f 69f
12:40am 3.5ft  -  5s 11 13 mph 1029.2mb 73f 68f
12:30am  -   -   -  11 16 mph 1029.3mb 73f 68f
12:20am  -   -   -  11 16 mph 1029.3mb 72f 69f
12:10am  -   -   -  13 16 mph 1029.3mb 72f 68f
12:00am  -   -   -  13 16 mph 1029.3mb 72f 68f
Fri 03/24 11:50pm 3.5ft 9s 5s 13 20 mph 1029.3mb 72f 68f
11:40pm 3.5ft  -  5s 13 18 mph 1029.3mb 72f 68f
11:30pm  -   -   -  13 18 mph 1029.3mb 72f 68f
11:20pm  -   -   -  13 18 mph 1029.3mb 72f 68f
11:10pm  -   -   -  11 16 mph 1029.3mb 72f 68f
11:00pm  -   -   -  11 18 mph 1029.3mb 73f 68f
10:50pm 3.5ft 9s 5s 11 16 mph 1029.3mb 73f 68f
10:40pm 3.5ft  -  5s 11 16 mph 1029.3mb 73f 68f
10:30pm  -   -   -  11 16 mph 1029.3mb 73f 68f
10:20pm  -   -   -  11 16 mph 1029.3mb 73f 68f
10:10pm  -   -   -  9 13 mph 1029.3mb 73f 68f
10:00pm  -   -   -  9 13 mph 1029.3mb 73f 68f
9:50pm 3.5ft 9s 5s 11 13 mph 1029.5mb 73f 68f
9:40pm  -   -   -  9 11 mph 1029.5mb 73f 68f
9:30pm  -   -   -  9 16 mph 1029.5mb 73f 68f
9:20pm  -   -   -  11 13 mph 1029.5mb 73f 68f
9:10pm  -   -   -  9 16 mph 1029.5mb 73f 68f
9:00pm  -   -   -  9 13 mph 1029.5mb 73f 68f
8:50pm 3.5ft 9s 5s 11 16 mph 1029.5mb 73f 68f
8:40pm 3.5ft  -  5s 9 13 mph 1029.5mb 73f 68f
8:30pm  -   -   -  11 16 mph 1029.3mb 73f 68f
8:20pm  -   -   -  9 13 mph 1029.3mb 73f 68f
8:10pm  -   -   -  9 11 mph 1029.3mb 73f 68f
8:00pm  -   -   -  9 13 mph 1029.3mb 73f 68f
7:50pm 3.5ft 9s 5s 9 13 mph 1029.3mb 73f 68f
7:40pm 3.5ft  -  5s 9 13 mph 1029.3mb 73f 68f
7:30pm  -   -   -  9 13 mph 1029.3mb 73f 68f
7:20pm  -   -   -  11 13 mph 1029.3mb 73f 68f
7:10pm  -   -   -  9 13 mph 1029.3mb 73f 68f
7:00pm  -   -   -  9 16 mph 1029.3mb 73f 68f
6:50pm 3.5ft 10s 5s 11 13 mph 1029.3mb 73f 68f
6:40pm 3.5ft  -  5s 11 16 mph 1029.3mb 73f 68f
6:30pm  -   -   -  11 16 mph 1029.3mb 73f 68f
6:20pm  -   -   -  11 16 mph 1029.5mb 73f 68f
6:10pm  -   -   -  11 16 mph 1029.5mb 73f 68f
6:00pm  -   -   -  13 18 mph 1029.5mb 73f 68f
5:50pm 3.5ft 10s 5s 13 18 mph 1029.5mb 73f 68f
5:40pm 3.5ft  -  5s 13 18 mph 1029.5mb 73f 68f
5:30pm  -   -   -  11 18 mph 1029.7mb 73f 68f
5:20pm  -   -   -  13 18 mph 1029.7mb 73f 68f
5:10pm  -   -   -  13 18 mph 1029.7mb 73f 68f
5:00pm  -   -   -  13 18 mph 1029.8mb - -
4:50pm 3.5ft 9s 5s 13 18 mph 1030mb 73f 68f
4:40pm 3.5ft  -  5s 13 18 mph 1030mb 73f 68f
4:30pm  -   -   -  13 18 mph 1030.2mb 73f 68f
4:20pm  -   -   -  13 18 mph 1030.2mb 73f 68f
4:10pm  -   -   -  13 18 mph 1030.2mb 73f 68f
4:00pm  -   -   -  13 18 mph 1030.3mb 73f 68f
3:50pm 4ft 9s 5s 11 16 mph 1030.3mb 73f 68f
3:40pm 4ft  -  5s 11 18 mph 1030.5mb 72f 68f
3:30pm  -   -   -  11 16 mph 1030.8mb 72f 68f
3:20pm  -   -   -  11 16 mph 1030.8mb 72f 68f
3:10pm  -   -   -  11 13 mph 1031mb 72f 68f
3:00pm  -   -   -  9 13 mph 1031.2mb 72f 68f
2:50pm 4ft 10s 5s 9 13 mph 1031.3mb 72f 67f
2:40pm  -   -   -  11 13 mph 1031.3mb 72f 67f
2:30pm  -   -   -  11 13 mph 1031.5mb 72f 68f
2:20pm  -   -   -  11 16 mph 1031.5mb 72f 67f
2:10pm  -   -   -  9 16 mph 1031.7mb 72f 67f
2:00pm  -   -   -  11 16 mph 1031.8mb 72f 67f
1:50pm 4.5ft 9s 5s 11 16 mph 1031.8mb 72f 67f
1:40pm 4.5ft  -  5s 11 13 mph 1032mb 72f 67f
1:30pm  -   -   -  11 16 mph 1032.2mb 71f 67f
1:20pm  -   -   -  11 16 mph 1032.3mb 71f 67f
1:10pm  -   -   -  11 13 mph 1032.3mb 71f 67f
1:00pm  -   -   -  11 16 mph 1032.5mb 71f 67f
12:50pm 4ft 10s 5s 11 16 mph 1032.5mb 71f 67f
12:40pm 4ft  -  5s 11 13 mph 1032.7mb 71f 67f
12:30pm  -   -   -  9 13 mph 1032.8mb 71f 67f
12:20pm  -   -   -  11 16 mph 1032.8mb 71f 67f
12:10pm  -   -   -  11 13 mph 1033mb 71f 67f
12:00pm  -   -   -  11 16 mph 1033mb 71f 66f
11:50am 4.5ft 9s 5s 11 16 mph 1033mb 71f 66f
11:40am  -   -   -  9 13 mph 1033.2mb 71f 66f
11:30am  -   -   -  11 16 mph 1033.2mb 71f 66f
11:20am  -   -   -  11 16 mph 1033.2mb 71f 66f
11:10am  -   -   -  11 16 mph 1033.2mb 71f 66f
11:00am  -   -   -  11 18 mph 1033.2mb 71f 66f
10:50am 4ft 8s 5s 11 18 mph 1033.2mb 71f 66f
10:40am 4ft  -  5s 11 16 mph 1033mb 71f 66f
10:30am  -   -   -  11 16 mph 1033mb 71f 66f
10:20am  -   -   -  9 18 mph 1033mb 71f 66f
10:10am  -   -   -  9 13 mph 1033mb 71f 66f
10:00am  -   -   -  11 16 mph 1033mb 71f 66f
9:50am 4.5ft 10s 6s 9 13 mph 1033mb 71f 66f
9:40am 4.5ft  -  6s 11 16 mph 1033mb 71f 65f
9:30am  -   -   -  9 16 mph 1033mb 71f 65f
9:20am  -   -   -  11 13 mph 1033mb 71f 65f
9:10am  -   -   -  9 13 mph 1032.8mb 71f 65f
9:00am  -   -   -  9 13 mph 1033mb 71f 65f
8:50am 4.5ft 10s 6s 11 18 mph 1033mb 71f 65f
8:40am  -   -   -  11 16 mph 1032.8mb 71f 65f
8:30am  -   -   -  11 16 mph 1032.8mb 72f 65f
8:20am  -   -   -  11 18 mph 1032.7mb 72f 65f
8:10am  -   -   -  11 18 mph 1032.5mb 72f 65f
8:00am  -   -   -  13 18 mph 1032.5mb 72f 65f
7:50am 4.5ft 10s 6s 11 16 mph 1032.5mb 72f 65f
7:40am 4.5ft  -  6s 11 16 mph 1032.5mb 72f 65f
7:30am  -   -   -  11 16 mph 1032.7mb 72f 65f
7:20am  -   -   -  11 13 mph 1032.5mb 72f 65f
7:10am  -   -   -  11 13 mph 1032.5mb 72f 65f
7:00am  -   -   -  9 18 mph 1032.5mb 72f 65f
6:50am 4.5ft 10s 5s 11 16 mph 1032.3mb 72f 65f
6:40am 4.5ft  -  5s 11 16 mph 1032.3mb 72f 65f
6:30am  -   -   -  11 16 mph 1032.3mb 72f 65f
6:20am  -   -   -  11 16 mph 1032.2mb 72f 64f
6:10am  -   -   -  11 16 mph 1032mb 72f 64f
6:00am  -   -   -  13 18 mph 1032mb 71f 64f
5:50am 4ft 7s 5s 13 18 mph 1031.8mb 71f 64f
5:40am 4ft  -  5s 13 18 mph 1031.8mb 71f 64f
5:30am  -   -   -  11 16 mph 1031.8mb 71f 64f
5:20am  -   -   -  11 16 mph 1031.8mb 71f 64f
5:10am  -   -   -  7 13 mph 1031.8mb 71f 64f
5:00am  -   -   -  7 11 mph 1031.8mb 71f 64f
4:50am 4.5ft 8s 5s 9 16 mph 1031.8mb 70f 64f
4:40am 4.5ft  -  5s 9 13 mph 1031.8mb 70f 64f
4:30am  -   -   -  7 11 mph 1032mb 70f 64f
4:20am  -   -   -  7 13 mph 1031.8mb 70f 64f
4:10am  -   -   -  11 16 mph 1031.8mb 70f 64f
4:00am  -   -   -  9 16 mph 1031.8mb 68f 63f
3:50am 4.5ft 10s 5s 11 13 mph 1031.7mb 68f 63f
3:40am  -   -   -  11 16 mph 1031.5mb 67f 63f
3:30am  -   -   -  11 16 mph 1031.5mb 67f 63f
3:20am  -   -   -  13 18 mph 1031.5mb 66f 62f
3:10am  -   -   -  13 18 mph 1031.7mb 66f 62f
3:00am  -   -   -  16 20 mph 1031.7mb 66f 62f
2:50am 4.5ft 10s 5s 16 20 mph 1031.8mb 66f 61f
2:40am  -   -   -  16 20 mph 1031.8mb 66f 61f
2:30am  -   -   -  18 22 mph 1031.8mb 66f 61f
2:20am  -   -   -  16 20 mph 1032mb 66f 61f
2:10am  -   -   -  16 20 mph 1032.2mb 66f 61f
2:00am  -   -   -  16 20 mph 1032.3mb 66f 60f
1:50am 5ft 10s 5s 16 22 mph 1032.5mb 66f 60f
1:40am 5ft  -  5s 16 20 mph 1032.8mb 66f 60f
1:30am  -   -   -  16 20 mph 1032.8mb 66f 60f
1:20am  -   -   -  16 20 mph 1033mb 66f 60f
1:10am  -   -   -  16 20 mph 1033mb 66f 60f
1:00am  -   -   -  16 22 mph 1033mb 66f 59f
12:50am 4.5ft 7s 5s 16 20 mph 1033.2mb 66f 59f
12:40am 4.5ft  -  5s 16 20 mph 1033.2mb 66f 59f
12:30am  -   -   -  16 20 mph 1033.2mb 66f 59f
12:20am  -   -   -  16 20 mph 1033.2mb 66f 59f
12:10am  -   -   -  16 20 mph 1033.3mb 66f 59f
12:00am  -   -   -  16 20 mph 1033.3mb 66f 58f
Thu 03/23 11:50pm 5ft 10s 5s 16 20 mph 1033.3mb 66f 58f
11:40pm 5ft  -  5s 16 22 mph 1033.3mb 66f 58f
11:30pm  -   -   -  16 20 mph 1033.2mb 66f 58f
11:20pm  -   -   -  16 20 mph 1033mb 66f 58f
11:10pm  -   -   -  16 22 mph 1033mb 66f 58f
11:00pm  -   -   -  16 22 mph 1033.3mb 66f 57f
10:50pm 5.5ft 6s 5s 18 22 mph 1033.3mb 66f 57f
10:40pm 5.5ft  -  5s 18 25 mph 1033.2mb 66f 57f
10:30pm  -   -   -  18 22 mph 1033.3mb 65f 57f
10:20pm  -   -   -  18 22 mph 1033.3mb 65f 57f
10:10pm  -   -   -  18 22 mph 1033.3mb 65f 56f
10:00pm  -   -   -  18 22 mph 1033.3mb 65f 56f
9:50pm 5.5ft 6s 5s 18 22 mph 1033.3mb 65f 56f
9:40pm  -   -   -  18 25 mph 1033.3mb 65f 56f
9:30pm  -   -   -  18 25 mph 1033.3mb 65f 56f
9:20pm  -   -   -  18 22 mph 1033.5mb 65f 56f
9:10pm  -   -   -  18 25 mph 1033.5mb 65f 55f
9:00pm  -   -   -  20 25 mph - 65f 55f
8:50pm 6ft 6s 5s 20 25 mph 1033.5mb 65f 55f
8:40pm  -   -   -  18 25 mph 1033.5mb 65f 55f
8:30pm  -   -   -  18 25 mph 1033.5mb 65f 55f
8:20pm  -   -   -  20 27 mph 1033.5mb 65f 55f
8:10pm  -   -   -  20 25 mph 1033.5mb 65f 55f
8:00pm  -   -   -  20 25 mph 1033.5mb 65f 55f
7:50pm 6ft 7s 5s 18 27 mph 1033.5mb 65f 54f
7:40pm  -   -   -  20 27 mph 1033.5mb 65f 55f
7:30pm  -   -   -  20 27 mph 1033.5mb 65f 54f
7:20pm  -   -   -  20 25 mph 1033.5mb 65f 54f
7:10pm  -   -   -  20 27 mph 1033.7mb 65f 54f
7:00pm  -   -   -  20 27 mph 1033.5mb - -
6:50pm 6.5ft 8s 5s 20 27 mph 1033.3mb 65f 55f
6:40pm 6.5ft  -  5s 22 27 mph 1033.3mb 65f 54f
6:30pm  -   -   -  22 29 mph 1033.3mb 65f 55f
6:20pm  -   -   -  22 29 mph 1033.2mb 65f 54f
6:10pm  -   -   -  22 29 mph 1033.2mb 65f 54f
6:00pm  -   -   -  22 27 mph 1033mb 65f 54f
5:50pm 6.5ft 7s 5s 22 29 mph 1033mb 65f 54f
5:40pm  -   -   -  22 29 mph 1033mb 65f 54f
5:30pm  -   -   -  22 27 mph 1033mb 65f 54f
5:20pm  -   -   -  20 27 mph 1033.2mb 65f 54f
5:10pm  -   -   -  22 29 mph 1033.2mb 65f 54f
5:00pm  -   -   -  20 29 mph 1033.2mb - -
4:50pm 6.5ft 6s 5s 22 29 mph 1033.3mb 65f 54f
4:40pm 6.5ft  -  5s 20 27 mph 1033.3mb 65f 54f
4:30pm  -   -   -  20 27 mph 1033.2mb 65f 54f
4:20pm  -   -   -  20 29 mph 1033.2mb 65f 54f
4:10pm  -   -   -  22 27 mph 1033mb 65f 54f
4:00pm  -   -   -  20 27 mph 1033mb 65f 54f
3:50pm 6ft 7s 5s 20 27 mph 1033.2mb 65f 54f
3:40pm  -   -   -  22 27 mph 1033.2mb 65f 54f
3:30pm  -   -   -  20 27 mph 1033.3mb 65f 54f
3:20pm  -   -   -  22 31 mph 1033.3mb 65f 54f
3:10pm  -   -   -  20 29 mph 1033.5mb 65f 54f
3:00pm  -   -   -  22 27 mph 1033.5mb 65f 54f
2:50pm 5.5ft 6s 5s 20 29 mph 1033.5mb 65f 54f
2:40pm 5.5ft  -  5s 20 27 mph 1033.5mb 65f 54f
2:30pm  -   -   -  20 29 mph 1033.5mb 65f 54f
2:20pm  -   -   -  20 27 mph 1033.7mb 65f 54f
2:10pm  -   -   -  22 27 mph 1033.8mb 65f 54f
2:00pm  -   -   -  22 29 mph 1033.8mb 65f 54f
1:50pm 6ft 6s 5s 22 29 mph 1033.8mb 65f 54f
1:40pm 6ft  -  5s 20 27 mph 1033.8mb 65f 54f
1:30pm  -   -   -  20 27 mph 1034mb 65f 54f
1:20pm  -   -   -  22 29 mph 1033.8mb 65f 54f
1:10pm  -   -   -  22 27 mph 1033.8mb 65f 54f
1:00pm  -   -   -  22 27 mph 1033.8mb 65f 55f
12:50pm 7ft 6s 5s 22 27 mph 1033.8mb 65f 54f
12:40pm 7ft  -  5s 25 31 mph 1033.8mb 65f 54f